Stations météo

réclame
Mon MeteoGroup
Stockholm/Arlanda, Suède (2460): Température de l'air & dewpoint: 12.02.2019 01:00:00 - 18.02.2019 01:00:00 (CET)Stockholm/Arlanda, Suède (2460): Vitesse du vent: 12.02.2019 01:00:00 - 18.02.2019 01:00:00 (CET)Stockholm/Arlanda, Suède (2460): Direction du vent: 12.02.2019 01:00:00 - 18.02.2019 01:00:00 (CET)Stockholm/Arlanda, Suède (2460): reduced air pressure: 12.02.2019 01:00:00 - 18.02.2019 01:00:00 (CET)Stockholm/Arlanda, Suède (2460): visibility: 12.02.2019 01:00:00 - 18.02.2019 01:00:00 (CET)
Date & Time tt [°C] td [°C] ff [km/h] ff [knt] dd ppp [hPa] vv [km]
18.02.2019 01:00:00 1,2 -3,6 11 6 SSE 1019,8 45
18.02.2019 00:00:00 1,1 -4,0 11 6 SSE 1020,3 35
17.02.2019 23:00:00 1,0 -3,9 7 4 S 1020,4 30
17.02.2019 22:00:00 0,8 -4,2 7 4 S 1020,8 40
17.02.2019 21:00:00 0,7 -3,6 4 2 S 1021,0 45
17.02.2019 20:00:00 1,3 -4,0 7 4 SE 1020,9 40
17.02.2019 19:00:00 1,4 -4,1 4 2 SE 1021,2 45
17.02.2019 18:00:00 1,0 -4,6 0 0 N 1020,9 26
17.02.2019 17:00:00 0,4 -3,3 0 0 N 1020,8 45
17.02.2019 16:00:00 1,9 -4,4 0 0 N 1020,6 35
17.02.2019 15:00:00 3,5 -5,4 0 0 N 1020,4 50
17.02.2019 14:00:00 3,9 -5,1 0 0 N 1020,2 40
17.02.2019 13:00:00 3,5 -5,2 0 0 N 1020,0 30
17.02.2019 12:00:00 3,4 -4,3 7 4 NNW 1019,9 35
17.02.2019 11:00:00 2,0 -4,2 7 4 NW 1019,2 45
17.02.2019 10:00:00 1,0 -3,7 7 4 NW 1018,8 45
17.02.2019 09:00:00 -0,8 -4,0 7 4 WNW 1018,6 50
17.02.2019 08:00:00 -1,7 -4,2 4 2 WNW 1018,0 50
17.02.2019 07:00:00 -1,5 -4,0 7 4 W 1017,5 50
17.02.2019 06:00:00 -1,7 -3,7 7 4 W 1016,6 50
17.02.2019 05:00:00 -2,6 -3,7 7 4 W 1016,5 50
17.02.2019 04:00:00 0,3 -2,9 7 4 NW 1016,0 50
17.02.2019 03:00:00 -0,2 -1,6 7 4 NW 1015,5 23
17.02.2019 02:00:00 0,0 -0,1 4 2 WNW 1014,8 11
17.02.2019 01:00:00 0,0 -0,6 7 4 W 1013,8 12
17.02.2019 00:00:00 1,6 0,4 4 2 WNW 1013,1 10
16.02.2019 23:00:00 2,6 1,0 7 4 W 1012,7 10
16.02.2019 22:00:00 3,2 1,6 7 4 W 1011,9 8
16.02.2019 21:00:00 3,4 1,9 7 4 W 1011,0 8
16.02.2019 20:00:00 4,2 2,1 11 6 W 1010,1 9
16.02.2019 19:00:00 4,5 2,0 11 6 W 1009,6 10
16.02.2019 18:00:00 5,3 2,3 14 8 W 1009,0 10
16.02.2019 17:00:00 5,5 2,0 18 10 W 1008,5 12
16.02.2019 16:00:00 6,3 1,6 18 10 WSW 1007,0 15
16.02.2019 15:00:00 7,5 1,6 22 12 WSW 1007,2 17
16.02.2019 14:00:00 7,5 0,9 25 14 WSW 1007,7 21
16.02.2019 13:00:00 7,5 0,7 25 14 WSW 1008,1 29
16.02.2019 12:00:00 7,1 -0,4 25 14 SW 1008,5 30
16.02.2019 11:00:00 6,2 -0,8 22 12 SW 1009,5 30
16.02.2019 10:00:00 5,3 -1,2 22 12 SW 1010,2 35
16.02.2019 09:00:00 4,1 -1,7 18 10 SW 1010,4 28
16.02.2019 08:00:00 3,0 -1,6 18 10 WSW 1011,0 24
16.02.2019 07:00:00 3,2 -1,6 18 10 SW 1011,2 24
16.02.2019 06:00:00 2,9 -1,5 18 10 SW 1011,8 23
16.02.2019 05:00:00 3,2 -1,2 18 10 SW 1012,6 23
16.02.2019 04:00:00 3,6 -1,0 18 10 SW 1013,0 26
16.02.2019 03:00:00 4,2 -0,4 18 10 SW 1013,8 18
16.02.2019 02:00:00 4,5 -0,7 22 12 SW 1014,8 26
16.02.2019 01:00:00 4,3 -0,5 18 10 SW 1015,7 25
16.02.2019 00:00:00 3,8 -0,2 18 10 SW 1016,1 28
15.02.2019 23:00:00 3,3 0,4 18 10 SW 1016,8 30
15.02.2019 22:00:00 3,2 0,9 14 8 SW 1017,6 24
15.02.2019 21:00:00 3,2 1,4 11 6 SW 1018,3 27
15.02.2019 20:00:00 3,4 1,8 14 8 WSW 1018,7 30
15.02.2019 19:00:00 3,4 2,2 22 12 WSW 1019,1 30
15.02.2019 18:00:00 3,6 2,4 18 10 WSW 1019,5 29
15.02.2019 17:00:00 3,9 2,4 18 10 WSW 1019,6 35
15.02.2019 16:00:00 4,8 3,1 18 10 WSW 1019,9 50
15.02.2019 15:00:00 6,2 3,7 18 10 SW 1020,1 45
15.02.2019 14:00:00 7,2 3,8 22 12 WSW 1020,7 50
15.02.2019 13:00:00 7,0 4,0 14 8 WSW 1021,1 45
15.02.2019 12:00:00 6,1 3,6 18 10 WSW 1021,6 50
15.02.2019 11:00:00 5,3 3,5 14 8 SW 1021,7 45
15.02.2019 10:00:00 4,7 3,2 14 8 WSW 1021,9 45
15.02.2019 09:00:00 4,0 3,0 14 8 WSW 1021,8 40
15.02.2019 08:00:00 3,4 2,5 14 8 WSW 1021,4 19
15.02.2019 07:00:00 3,3 2,4 14 8 WSW 1021,3 15
15.02.2019 06:00:00 3,4 2,5 14 8 WSW 1021,1 15
15.02.2019 05:00:00 3,1 2,2 11 6 WSW 1021,3 18
15.02.2019 04:00:00 3,4 2,2 11 6 WSW 1021,2 17
15.02.2019 03:00:00 3,7 2,4 11 6 WSW 1021,2 22
15.02.2019 02:00:00 3,6 2,3 11 6 WSW 1021,2 21
15.02.2019 01:00:00 3,8 2,3 11 6 WSW 1021,0 22
15.02.2019 00:00:00 3,8 2,3 14 8 WSW 1020,7 21
14.02.2019 23:00:00 3,9 2,3 11 6 WSW 1020,7 23
14.02.2019 22:00:00 4,4 2,4 18 10 WSW 1020,1 21
14.02.2019 21:00:00 4,6 2,6 18 10 WSW 1019,5 28
14.02.2019 20:00:00 5,1 3,0 22 12 WSW 1019,2 28
14.02.2019 19:00:00 5,2 2,7 25 14 WSW 1018,7 35
14.02.2019 18:00:00 5,6 3,3 22 12 WSW 1018,6 25
14.02.2019 17:00:00 5,6 3,4 29 16 WSW 1017,7 30
14.02.2019 16:00:00 5,6 3,8 25 14 WSW 1018,2 27
14.02.2019 15:00:00 5,8 3,8 22 12 WSW 1018,9 35
14.02.2019 14:00:00 5,2 3,5 22 12 WSW 1019,8 50
14.02.2019 13:00:00 4,8 3,5 22 12 SW 1019,7 50
14.02.2019 12:00:00 4,0 2,8 22 12 SW 1020,7 50
14.02.2019 11:00:00 3,1 2,2 18 10 WSW 1021,3 23
14.02.2019 10:00:00 1,9 1,0 11 6 SSW 1021,9 10
14.02.2019 09:00:00 1,4 0,2 14 8 WSW 1021,9 10
14.02.2019 08:00:00 1,4 -0,4 18 10 SW 1021,2 10
14.02.2019 07:00:00 0,6 -1,5 14 8 SW 1021,3 13
14.02.2019 06:00:00 0,5 -2,4 7 4 SSW 1021,4 21
14.02.2019 05:00:00 0,0 -2,7 7 4 S 1021,2 29
14.02.2019 04:00:00 0,0 -2,9 4 2 S 1021,5 30
14.02.2019 03:00:00 1,0 -2,9 4 2 SW 1021,7 35
14.02.2019 02:00:00 -1,3 -2,7 4 2 SSW 1020,8 35
14.02.2019 01:00:00 2,0 -2,0 0 0 N 1020,2 40
14.02.2019 00:00:00 3,7 -2,1 4 2 W 1020,0 35
13.02.2019 23:00:00 4,5 -1,7 11 6 W 1019,7 40
13.02.2019 22:00:00 5,0 -1,4 7 4 WNW 1019,1 45
13.02.2019 21:00:00 4,6 -1,2 14 8 W 1018,8 50
13.02.2019 20:00:00 5,1 -0,7 14 8 W 1017,7 50
13.02.2019 19:00:00 5,1 0,3 11 6 W 1016,8 50
13.02.2019 18:00:00 5,0 0,8 14 8 W 1015,8 50
13.02.2019 17:00:00 4,8 0,6 18 10 WSW 1014,8 50
13.02.2019 16:00:00 5,4 0,4 14 8 WSW 1013,6 50
13.02.2019 15:00:00 5,9 0,4 11 6 SW 1013,3 50
13.02.2019 14:00:00 6,8 0,2 11 6 SW 1012,3 50
13.02.2019 13:00:00 6,0 0,5 11 6 W 1011,9 50
13.02.2019 12:00:00 5,3 1,0 11 6 W 1011,4 45
13.02.2019 11:00:00 4,5 1,4 11 6 W 1010,5 45
13.02.2019 10:00:00 3,3 1,3 14 8 W 1009,1 45
13.02.2019 09:00:00 2,7 1,5 11 6 W 1007,7 45
13.02.2019 08:00:00 2,1 1,8 7 4 W 1006,6 22
13.02.2019 07:00:00 2,3 1,7 7 4 W 1005,2 18
13.02.2019 06:00:00 2,5 2,2 11 6 W 1005,1 21
13.02.2019 05:00:00 1,4 1,3 14 8 SW 1005,0 5
13.02.2019 04:00:00 0,8 0,7 11 6 SW 1005,5 3,2
13.02.2019 03:00:00 0,4 0,1 14 8 SSW 1006,6 3,0
13.02.2019 02:00:00 -0,1 -0,5 18 10 SSW 1008,4 9
13.02.2019 01:00:00 -0,4 -1,0 18 10 SSW 1009,8 7
13.02.2019 00:00:00 -0,9 -1,5 14 8 SSW 1011,8 2,7
12.02.2019 23:00:00 -1,0 -2,4 14 8 SW 1013,5 2,6
12.02.2019 22:00:00 -0,9 -5,9 14 8 SW 1014,5 50
12.02.2019 21:00:00 -1,4 -7,3 11 6 SW 1015,5 50
12.02.2019 20:00:00 -1,2 -7,5 11 6 SW 1016,1 50
12.02.2019 19:00:00 -1,2 -7,1 11 6 SW 1016,6 50
12.02.2019 18:00:00 -1,3 -7,2 7 4 WSW 1016,9 50
12.02.2019 17:00:00 -1,0 -7,4 11 6 W 1017,1 50
12.02.2019 16:00:00 -0,2 -6,8 14 8 W 1017,0 50
12.02.2019 15:00:00 0,6 -6,5 14 8 WSW 1016,8 50
12.02.2019 14:00:00 1,2 -7,1 11 6 W 1016,5 45
12.02.2019 13:00:00 0,6 -7,1 14 8 W 1015,9 45
12.02.2019 12:00:00 0,2 -7,3 11 6 W 1015,6 50
12.02.2019 11:00:00 -0,7 -7,3 14 8 W 1015,4 50
12.02.2019 10:00:00 -1,9 -7,4 11 6 WNW 1015,0 45
12.02.2019 09:00:00 -2,9 -7,6 11 6 W 1014,5 45
12.02.2019 08:00:00 -3,5 -7,5 7 4 WNW 1013,8 50
12.02.2019 07:00:00 -3,4 -7,0 11 6 W 1013,1 50
12.02.2019 06:00:00 -2,8 -6,8 11 6 WNW 1012,2 50
12.02.2019 05:00:00 -2,2 -6,6 11 6 NW 1011,8 50
12.02.2019 04:00:00 -2,2 -6,6 11 6 NNW 1010,8 50
12.02.2019 03:00:00 -2,3 -6,0 11 6 NNW 1009,6 50
12.02.2019 02:00:00 -2,1 -5,9 14 8 NNW 1008,6 50
12.02.2019 01:00:00 -2,0 -6,0 11 6 NNW 1007,6 50

tt = Température de l'air
td = dewpoint
ff = Vitesse du vent
dd = Direction du vent
ppp = reduced air pressure
vv = visibility

stations d'obs. à proximité